Terminal Aerodrome Forecast
Issued by NWS Wilmington, OH

Current Version | Previous Version | Graphics & Text | Print | Product List | Glossary On
Versions: 1 2 3 4 5 6 7 8 9 10 11 12 13 14 15 16 17 18 19 20 21 22
000
FTUS41 KILN 201121
TAFDAY
TAF
KDAY 201121Z 2012/2112 33003KT 2SM BR BKN005
     FM201300 31004KT P6SM SCT080
     FM201800 35006KT P6SM VCTS BKN040CB
     FM210100 05007KT P6SM VCSH BKN040=

USA.gov is the U.S. government's official web portal to all federal, state and local government web resources and services.